Location: Zagreb
(45.8000°N, 16.0000°E)
Time: 22:36:19
(UTC+01:00)

Vanguard 2 Rocket - Pass Details

Date: 31 January 2020
Orbit: 553 x 3327 km, 32.9° (Epoch: 24 February)

Event Time Altitude Azimuth Distance (km) Brightness Sun altitude
Exits shadow 05:00:12 16° 183° (S) 1,608 8.1 -24.4°
Maximum altitude 05:00:41 17° 175° (S) 1,621 8.2 -24.3°
Drops below altitude 10° 05:03:46 10° 135° (SE) 2,241 9.5 -23.8°
Sets 05:07:31 0° 116° (ESE) 3,545 11.0 -23.2°
